QPF
0.00 0.00 0.00 0.00 0.00 0.00 0.00 0.00 0.00 0.00 0.00 0.00 0.00 0.00 0.00 0.00 0.00 0.00 0.00 0.00 0.00 0.00 0.00 0.00 0.00 0.00 0.00 0.00 0.00 0.00 0.00 0.00 0.00 0.00 0.00 0.00 0.00 0.00 0.00 0.00 0.00 0.00 0.00
0.00 0.00 0.00 0.00 0.00 0.00 0.00 0.00 0.00 0.00 0.00 0.00 0.00 0.00 0.00 0.00 0.00 0.00 0.00 0.00 0.00 0.00 0.00 0.00 0.00 0.00 0.00 0.00 0.00 0.00 0.00 0.00 0.00 0.00 0.00 0.00 0.00 0.00 0.00 0.00 0.00 0.00 0.00
0.00 0.00 0.00 0.00 0.00 0.00 0.00 0.00 0.00 0.00 0.00 0.00 0.00 0.00 0.00 0.00 0.00 0.00 0.00 0.00 0.00 0.00 0.00 0.00 0.00 0.00 0.00 0.00 0.00 0.00 0.00 0.00 0.00 0.00 0.00 0.00 0.00 0.00 0.00 0.00 0.00 0.00 0.00
0.00 0.00 0.00 0.00 0.00 0.00 0.00 0.00 0.00 0.00 0.00 0.00 0.00 0.00 0.00 0.00 0.00 0.00 0.00 0.00 0.00 0.00 0.00 0.00 0.00 0.00 0.00 0.00 0.00 0.00 0.00 0.00 0.00 0.00 0.00 0.00 0.00 0.00 0.00 0.00 0.00 0.00 0.00
0.00 0.00 0.00 0.00 0.00 0.00 0.00 0.00 0.00 0.00 0.00 0.00 0.00 0.00 0.00 0.00 0.00 0.00 0.00 0.00 0.00 0.00 0.00 0.00 0.00 0.00 0.00 0.00 0.00 0.00 0.00 0.00 0.00 0.00 0.00 0.00 0.00 0.00 0.00 0.00 0.00 0.00 0.00
0.00 0.00 0.00 0.00 0.00 0.00 0.00 0.00 0.00 0.00 0.00 0.00 0.00 0.00 0.00 0.00 0.00 0.00 0.00 0.00 0.00 0.00 0.00 0.00 0.00 0.00 0.00 0.00 0.00 0.00 0.00 0.00 0.00 0.00 0.00 0.00 0.00 0.00 0.00 0.00 0.00 0.00 0.00
0.00 0.00 0.00 0.00 0.00 0.00 0.00 0.00 0.00 0.00 0.00 0.00 0.00 0.00 0.00 0.00 0.00 0.00 0.00 0.00 0.00 0.00 0.00 0.00 0.00 0.00 0.00 0.00 0.00 0.00 0.00 0.01 0.01 0.01 0.00 0.00 0.00 0.01 0.02 0.03 0.01 0.02 0.02
0.00 0.00 0.00 0.00 0.00 0.00 0.00 0.00 0.00 0.00 0.00 0.00 0.00 0.00 0.00 0.00 0.00 0.00 0.00 0.00 0.00 0.00 0.00 0.00 0.00 0.00 0.00 0.00 0.00 0.00 0.00 0.00 0.05 0.04 0.00 0.00 0.01 0.01 0.01 0.02 0.02 0.02 0.02
0.00 0.00 0.00 0.00 0.00 0.00 0.00 0.00 0.00 0.00 0.00 0.00 0.00 0.00 0.00 0.00 0.00 0.00 0.00 0.00 0.00 0.00 0.00 0.00 0.00 0.00 0.00 0.00 0.00 0.00 0.00 0.00 0.04 0.09 0.03 0.00 0.00 0.00 0.01 0.01 0.02 0.05 0.02
0.00 0.00 0.00 0.00 0.00 0.00 0.00 0.00 0.00 0.00 0.00 0.00 0.00 0.00 0.00 0.00 0.00 0.00 0.00 0.00 0.00 0.00 0.00 0.00 0.00 0.00 0.00 0.00 0.00 0.00 0.00 0.00 0.01 0.06 0.04 0.01 0.02 0.01 0.00 0.00 0.02 0.02 0.00
0.00 0.00 0.00 0.00 0.00 0.00 0.00 0.00 0.00 0.00 0.00 0.00 0.00 0.00 0.00 0.00 0.00 0.00 0.00 0.00 0.00 0.00 0.00 0.00 0.00 0.00 0.00 0.00 0.00 0.00 0.01 0.02 0.08 0.04 0.07 0.07 0.02 0.01 0.00 0.00 0.00 0.00 0.00
0.00 0.00 0.00 0.00 0.00 0.00 0.00 0.00 0.00 0.00 0.00 0.00 0.00 0.00 0.00 0.00 0.00 0.00 0.00 0.00 0.00 0.00 0.00 0.00 0.00 0.00 0.00 0.00 0.00 0.00 0.02 0.08 0.03 0.06 0.05 0.03 0.01 0.00 0.00 0.00 0.00 0.00 0.00
0.00 0.00 0.00 0.00 0.00 0.00 0.00 0.00 0.00 0.00 0.00 0.00 0.00 0.00 0.00 0.00 0.00 0.00 0.00 0.00 0.00 0.00 0.00 0.00 0.00 0.00 0.00 0.00 0.00 0.01 0.08 0.10 0.01 0.01 0.01 0.00 0.00 0.00 0.00 0.00 0.00 0.00 0.00
0.00 0.00 0.00 0.00 0.00 0.00 0.00 0.00 0.00 0.00 0.00 0.00 0.00 0.00 0.00 0.00 0.00 0.00 0.00 0.00 0.00 0.00 0.00 0.00 0.03 0.03 0.02 0.01 0.03 0.09 0.13 0.13 0.03 0.03 0.04 0.05 0.02 0.00 0.00 0.00 0.00 0.00 0.00
0.00 0.00 0.00 0.00 0.00 0.00 0.00 0.00 0.00 0.00 0.00 0.00 0.00 0.00 0.00 0.00 0.00 0.00 0.00 0.00 0.00 0.00 0.00 0.01 0.05 0.14 0.17 0.17 0.17 0.17 0.19 0.14 0.11 0.13 0.20 0.23 0.06 0.00 0.00 0.00 0.00 0.00 0.00
0.00 0.00 0.00 0.00 0.00 0.00 0.00 0.00 0.00 0.00 0.00 0.00 0.00 0.00 0.00 0.00 0.00 0.00 0.00 0.00 0.00 0.01 0.02 0.08 0.10 0.20 0.31 0.28 0.27 0.25 0.22 0.21 0.17 0.15 0.17 0.22 0.05 0.00 0.00 0.00 0.00 0.00 0.00
0.00 0.00 0.00 0.00 0.00 0.00 0.00 0.00 0.00 0.00 0.00 0.00 0.00 0.00 0.00 0.00 0.00 0.00 0.00 0.00 0.00 0.00 0.01 0.03 0.05 0.08 0.14 0.21 0.20 0.17 0.21 0.19 0.09 0.07 0.05 0.03 0.01 0.00 0.00 0.00 0.00 0.00 0.00
0.00 0.00 0.00 0.00 0.00 0.00 0.00 0.00 0.00 0.00 0.00 0.00 0.00 0.00 0.00 0.00 0.00 0.00 0.00 0.01 0.01 0.01 0.01 0.01 0.06 0.18 0.21 0.15 0.13 0.07 0.04 0.03 0.02 0.03 0.03 0.02 0.00 0.00 0.00 0.00 0.00 0.00 0.00
0.00 0.00 0.00 0.00 0.00 0.00 0.00 0.00 0.00 0.00 0.00 0.00 0.00 0.00 0.01 0.04 0.06 0.07 0.08 0.07 0.05 0.04 0.07 0.10 0.13 0.16 0.15 0.10 0.08 0.07 0.03 0.02 0.00 0.01 0.00 0.00 0.00 0.00 0.00 0.00 0.00 0.00 0.00
0.00 0.00 0.00 0.00 0.00 0.00 0.00 0.00 0.00 0.00 0.00 0.00 0.00 0.00 0.00 0.02 0.07 0.18 0.23 0.27 0.28 0.16 0.14 0.13 0.12 0.11 0.07 0.04 0.01 0.01 0.01 0.00 0.00 0.00 0.00 0.00 0.00 0.00 0.00 0.00 0.00 0.00 0.00
0.00 0.00 0.00 0.00 0.00 0.00 0.00 0.00 0.00 0.00 0.00 0.00 0.00 0.00 0.00 0.00 0.05 0.30 0.88 1.28 1.10 0.95 0.96 0.81 0.31 0.10 0.04 0.02 0.00 0.00 0.00 0.00 0.00 0.00 0.00 0.00 0.00 0.00 0.00 0.00 0.00 0.00 0.00
0.00 0.00 0.00 0.00 0.00 0.00 0.00 0.00 0.00 0.00 0.00 0.00 0.00 0.00 0.00 0.01 0.08 0.32 0.81 1.08 1.20 1.37 1.48 1.36 0.82 0.31 0.08 0.01 0.00 0.00 0.00 0.00 0.00 0.00 0.00 0.00 0.00 0.00 0.00 0.00 0.00 0.00 0.00
0.00 0.00 0.00 0.00 0.00 0.00 0.00 0.00 0.00 0.00 0.00 0.00 0.00 0.00 0.01 0.00 0.01 0.03 0.08 0.10 0.12 0.12 0.22 0.22 0.15 0.08 0.05 0.01 0.01 0.00 0.00 0.00 0.00 0.00 0.00 0.00 0.00 0.00 0.00 0.00 0.00 0.00 0.00
0.00 0.00 0.01 0.00 0.00 0.00 0.00 0.00 0.00 0.00 0.00 0.00 0.00 0.01 0.02 0.01 0.01 0.08 0.17 0.17 0.20 0.27 0.18 0.17 0.09 0.04 0.02 0.02 0.00 0.00 0.00 0.00 0.00 0.00 0.00 0.00 0.00 0.00 0.00 0.00 0.00 0.00 0.00
0.00 0.00 0.00 0.00 0.01 0.00 0.00 0.00 0.00 0.00 0.00 0.00 0.00 0.00 0.00 0.00 0.00 0.01 0.02 0.06 0.16 0.34 0.21 0.12 0.04 0.00 0.00 0.00 0.00 0.00 0.00 0.00 0.00 0.00 0.00 0.00 0.00 0.00 0.00 0.00 0.00 0.00 0.00
0.00 0.00 0.00 0.00 0.00 0.00 0.00 0.00 0.00 0.00 0.00 0.00 0.00 0.00 0.00 0.00 0.00 0.00 0.00 0.00 0.00 0.00 0.00 0.00 0.00 0.00 0.00 0.00 0.00 0.00 0.00 0.00 0.00 0.00 0.00 0.00 0.00 0.00 0.00 0.00 0.00 0.00 0.00
MSLP
1005.52 1006.22 1006.92 1007.66 1008.47 1009.22 1009.47 1009.72 1010.23 1010.58 1010.77 1011.36 1011.65 1012.21 1012.82 1013.27 1013.73 1014.21 1014.51 1014.41 1015.05 1015.62 1015.83 1016.03 1016.50 1016.61 1016.17 1016.07 1016.41 1016.54 1016.60 1016.77 1016.62 1016.24 1016.29 1017.22 1017.65 1018.09 1018.16 1018.30 1018.49 1018.69 1018.78
1004.14 1004.98 1005.70 1006.40 1007.20 1007.79 1008.35 1008.89 1009.41 1009.81 1010.28 1010.53 1011.10 1011.62 1012.16 1012.62 1013.00 1013.40 1013.80 1013.75 1014.10 1014.73 1015.24 1015.46 1015.74 1016.23 1016.50 1016.37 1016.16 1016.35 1016.45 1016.43 1016.63 1016.61 1016.56 1016.91 1017.54 1017.82 1017.96 1018.16 1018.29 1017.78 1017.72
1003.21 1003.91 1004.64 1005.20 1005.66 1006.11 1006.98 1007.76 1008.31 1008.94 1009.47 1009.85 1010.35 1010.73 1011.27 1011.65 1012.03 1012.46 1012.94 1013.28 1013.28 1013.64 1014.15 1014.56 1014.90 1015.34 1015.65 1015.90 1016.16 1015.95 1016.17 1016.57 1016.67 1016.86 1016.62 1016.51 1016.78 1017.30 1017.69 1018.15 1018.28 1018.50 1018.43
1001.51 1002.58 1003.22 1003.80 1004.22 1004.91 1005.75 1006.53 1007.27 1007.88 1008.41 1008.85 1009.22 1009.79 1010.22 1010.61 1010.97 1011.33 1011.71 1012.16 1012.50 1012.58 1013.04 1013.54 1013.88 1014.38 1014.99 1015.43 1015.71 1015.93 1015.95 1016.03 1016.38 1016.66 1016.60 1016.36 1016.22 1016.54 1017.09 1017.54 1017.63 1017.98 1017.61
1000.11 1000.95 1001.67 1002.61 1003.46 1004.25 1004.81 1005.36 1006.12 1006.67 1007.24 1007.81 1008.33 1008.70 1009.19 1009.57 1009.81 1010.22 1010.59 1011.03 1011.42 1011.62 1011.89 1012.50 1013.05 1013.59 1014.16 1014.65 1015.08 1015.35 1015.82 1016.08 1015.96 1015.90 1016.18 1016.07 1015.86 1015.99 1016.46 1016.70 1016.82 1016.89 1017.11
998.92 999.49 1000.68 1001.72 1002.59 1003.27 1004.04 1004.58 1005.08 1005.55 1005.99 1006.53 1006.85 1007.32 1007.85 1008.25 1008.67 1009.24 1009.83 1010.23 1010.66 1011.11 1011.26 1011.58 1012.00 1012.58 1013.28 1013.79 1014.32 1014.61 1015.08 1015.34 1015.52 1015.35 1015.12 1015.25 1015.43 1015.54 1015.90 1016.46 1016.52 1016.72 1016.91
998.13 998.91 999.69 1000.52 1001.35 1002.28 1003.14 1003.65 1003.87 1004.17 1004.95 1005.28 1005.81 1006.42 1006.82 1007.15 1007.38 1008.09 1008.93 1009.39 1009.54 1009.80 1010.20 1010.47 1010.83 1011.23 1012.16 1013.09 1013.65 1013.97 1014.26 1014.51 1014.63 1014.89 1015.11 1014.99 1015.05 1015.29 1015.65 1016.47 1016.73 1016.90 1017.03
997.47 998.16 998.72 999.34 1000.19 1001.27 1002.03 1002.53 1003.19 1003.87 1004.13 1004.51 1004.98 1005.41 1005.74 1005.78 1006.44 1007.12 1007.77 1008.35 1008.47 1008.63 1008.91 1009.27 1009.80 1010.16 1010.62 1011.47 1012.29 1013.02 1013.27 1013.63 1014.04 1014.30 1014.49 1014.56 1014.74 1015.05 1015.71 1016.10 1016.66 1016.96 1017.22
996.53 997.03 997.72 998.68 999.48 1000.12 1000.47 1001.15 1001.98 1002.71 1003.08 1003.22 1003.63 1004.15 1004.42 1004.61 1005.19 1005.99 1006.91 1006.84 1006.99 1007.24 1007.61 1008.28 1008.87 1009.15 1009.45 1010.39 1011.09 1011.74 1012.26 1012.73 1012.91 1013.52 1014.13 1014.15 1014.47 1014.85 1014.98 1015.51 1015.83 1016.60 1016.61
995.19 996.02 997.17 997.85 998.60 999.06 999.66 1000.26 1001.01 1001.61 1001.87 1002.35 1002.57 1002.68 1003.11 1003.37 1003.64 1004.29 1005.29 1005.52 1005.62 1005.97 1006.23 1006.73 1007.20 1007.79 1008.52 1009.17 1009.93 1010.46 1010.84 1011.31 1012.17 1013.06 1013.87 1014.09 1014.63 1014.28 1014.67 1015.00 1015.21 1015.71 1016.14
994.72 995.49 996.20 996.91 997.52 998.28 998.99 999.56 1000.09 1000.62 1001.06 1001.31 1001.40 1001.53 1001.66 1002.00 1002.16 1002.89 1003.52 1003.59 1003.33 1003.60 1004.01 1004.61 1004.70 1005.73 1006.66 1007.63 1008.42 1008.96 1009.60 1010.61 1011.31 1012.17 1013.35 1013.92 1014.09 1014.09 1014.12 1014.40 1014.67 1014.90 1015.14
993.95 994.85 995.56 996.34 996.97 997.53 998.24 998.90 999.44 999.98 1000.34 1000.42 1000.69 1000.64 1000.34 1000.40 1000.90 1001.71 1002.41 1002.22 1001.99 1002.42 1002.38 1003.34 1003.73 1004.43 1005.83 1007.21 1008.35 1008.67 1009.68 1010.13 1010.82 1011.71 1012.30 1012.91 1012.65 1012.56 1013.01 1013.58 1014.08 1014.53 1014.98
993.76 994.36 995.09 995.79 996.40 996.85 997.43 998.27 998.86 999.37 999.43 999.48 999.46 999.21 998.95 998.59 999.26 1000.57 1001.62 1002.14 1002.30 1002.26 1001.49 1001.60 1002.10 1004.02 1005.33 1006.46 1007.31 1008.61 1009.59 1010.11 1010.21 1010.54 1011.56 1010.69 1011.72 1011.37 1012.19 1012.90 1013.49 1014.24 1015.02
993.59 994.18 994.72 995.24 995.85 996.41 996.88 997.45 998.05 997.99 998.26 998.68 998.46 998.32 998.00 998.45 998.31 998.18 999.70 1001.60 1002.52 1002.79 1002.43 1002.24 1002.46 1002.77 1003.44 1005.35 1007.29 1008.09 1008.57 1010.50 1009.18 1009.27 1010.03 1009.97 1011.05 1010.58 1011.57 1012.53 1013.02 1013.81 1014.62
993.80 994.11 994.43 994.77 995.32 995.78 996.44 996.64 997.07 997.38 997.57 998.05 998.40 998.36 997.80 997.65 997.30 997.50 998.06 998.80 1000.51 1001.52 1002.40 1003.43 1003.72 1003.65 1004.32 1005.37 1006.07 1006.76 1007.82 1007.04 1008.92 1008.61 1009.44 1010.06 1010.09 1010.86 1010.95 1011.96 1012.55 1013.07 1013.58
993.90 993.97 993.95 993.83 994.20 995.15 995.45 996.69 997.33 997.28 997.58 998.25 999.07 999.52 998.02 998.40 998.11 998.34 998.17 998.80 999.64 1000.88 1002.04 1002.47 1002.78 1002.95 1002.95 1003.10 1003.81 1005.19 1006.58 1006.88 1007.73 1008.83 1009.22 1009.53 1010.12 1010.73 1011.04 1011.98 1012.47 1012.61 1012.69
994.42 994.53 994.10 994.16 993.74 993.86 994.50 995.33 996.05 997.18 997.59 998.03 998.89 999.15 999.69 999.67 999.02 999.07 999.35 999.17 999.39 1000.33 1000.66 1001.01 1001.27 1001.55 1001.87 1002.49 1003.71 1003.74 1004.15 1004.90 1007.18 1007.92 1007.95 1008.65 1009.48 1010.12 1010.58 1011.20 1011.77 1012.33 1012.22
995.66 995.73 994.70 994.62 994.47 994.60 995.15 995.65 996.18 996.75 997.12 998.10 999.28 999.56 999.53 999.45 999.51 999.32 999.40 999.60 1000.46 999.24 998.89 999.21 999.68 1000.37 1001.00 1001.73 1002.90 1003.67 1004.48 1005.48 1006.16 1006.69 1007.27 1008.01 1008.62 1009.34 1010.11 1010.50 1011.07 1011.42 1011.77
995.20 995.43 995.49 995.97 996.48 996.52 996.67 997.04 997.53 998.05 998.57 999.02 999.34 999.23 999.47 999.88 999.83 999.83 1000.03 998.97 998.46 998.05 997.64 997.52 997.99 998.73 999.33 1000.56 1001.93 1002.82 1003.48 1003.49 1005.46 1006.13 1006.54 1007.13 1007.78 1008.48 1009.02 1009.67 1010.38 1010.91 1011.22
996.53 996.74 996.42 996.08 996.34 996.52 996.62 996.83 997.15 997.74 998.27 998.68 998.94 999.09 999.37 999.70 999.42 999.48 999.71 999.30 998.78 997.71 996.32 995.49 995.98 996.43 997.72 999.46 1001.22 1001.92 1003.07 1002.97 1005.17 1005.85 1005.91 1006.34 1007.14 1007.74 1008.26 1009.00 1009.48 1010.01 1010.86
995.57 996.04 996.59 996.41 996.73 996.82 996.95 996.89 996.97 997.13 997.87 998.07 998.73 999.61 999.88 999.36 998.70 998.57 998.73 998.64 998.11 997.11 996.88 995.88 992.28 993.46 997.92 998.54 1000.09 1001.06 1001.92 1002.47 1003.69 1004.42 1004.99 1006.02 1006.69 1007.08 1007.64 1008.17 1008.72 1009.40 1009.94
995.77 995.88 996.06 996.24 996.81 997.15 996.78 997.25 997.16 997.59 998.31 998.65 998.58 999.71 999.98 999.53 999.19 999.06 998.67 998.25 997.71 997.84 997.48 996.86 995.53 996.40 997.26 998.69 999.30 1000.35 1001.22 1002.11 1003.25 1003.66 1004.71 1005.36 1006.24 1006.67 1007.05 1007.44 1008.07 1008.81 1009.30
996.74 997.13 997.48 997.86 997.86 997.96 997.94 998.43 999.17 999.65 999.54 999.87 999.76 999.68 1000.07 999.60 999.40 999.23 998.63 998.35 997.95 998.45 998.21 998.03 997.95 998.59 998.74 999.29 999.87 1000.44 1000.55 1001.54 1002.82 1003.71 1004.41 1004.99 1005.51 1006.02 1006.46 1006.94 1007.61 1008.03 1008.57
997.93 998.07 998.21 998.49 998.59 998.41 998.46 998.78 1000.10 1000.66 1000.43 1000.43 1000.40 1000.53 1000.49 1000.29 999.98 999.30 998.70 998.97 998.95 998.73 998.69 998.97 998.80 999.07 999.25 999.99 1000.08 1000.51 1001.22 1002.08 1003.04 1003.68 1004.04 1004.53 1005.10 1005.96 1006.15 1006.52 1007.30 1007.76 1007.93
999.19 998.39 1000.16 1000.12 999.80 1000.34 1000.60 1000.78 1001.16 1000.96 1001.47 1001.47 1001.33 1001.32 1000.82 1000.45 1000.00 999.47 998.65 999.37 999.53 999.33 999.39 999.77 999.71 999.41 999.63 1000.39 1000.67 1000.78 1001.32 1002.04 1002.60 1003.33 1004.20 1004.72 1005.17 1005.54 1006.08 1006.15 1006.88 1007.35 1007.73
1000.33 1000.79 1001.15 1000.80 1000.59 1001.07 1001.62 1002.22 1002.78 1002.77 1003.05 1003.11 1002.76 1002.47 1002.36 1002.03 1001.31 999.82 998.61 998.30 998.64 998.63 998.80 999.16 999.49 1000.17 1000.46 1000.76 1000.88 1001.43 1001.84 1002.27 1002.98 1003.88 1004.22 1004.95 1005.38 1005.78 1006.00 1006.52 1006.80 1006.91 1007.16
Thickness
5850 5847 5843 5839 5834 5829 5828 5828 5825 5824 5826 5821 5820 5816 5811 5808 5807 5802 5800 5803 5795 5790 5788 5785 5780 5780 5783 5783 5779 5774 5769 5765 5756 5763 5765 5756 5750 5745 5742 5738 5732 5726 5722
5859 5854 5850 5846 5841 5836 5833 5831 5829 5826 5825 5824 5821 5817 5812 5809 5808 5805 5801 5804 5800 5794 5790 5788 5784 5781 5778 5779 5778 5774 5770 5769 5761 5753 5757 5756 5749 5747 5743 5737 5731 5730 5727
5864 5860 5856 5853 5850 5847 5841 5837 5835 5830 5826 5825 5822 5818 5814 5812 5810 5809 5805 5803 5805 5802 5798 5793 5790 5786 5782 5781 5777 5776 5773 5768 5763 5754 5752 5758 5754 5749 5743 5734 5729 5720 5717
5872 5866 5863 5861 5859 5855 5850 5845 5840 5836 5831 5829 5828 5823 5820 5818 5816 5814 5812 5810 5807 5809 5806 5801 5797 5792 5785 5781 5778 5774 5773 5768 5762 5754 5750 5751 5753 5751 5742 5730 5726 5723 5723
5878 5875 5873 5869 5863 5858 5854 5851 5847 5844 5839 5836 5832 5830 5827 5825 5823 5819 5818 5815 5811 5811 5811 5805 5801 5796 5791 5786 5781 5776 5770 5763 5760 5756 5749 5749 5747 5744 5737 5735 5727 5724 5718
5882 5883 5878 5872 5867 5863 5858 5853 5851 5849 5847 5844 5842 5838 5834 5832 5829 5823 5820 5815 5812 5807 5805 5806 5804 5799 5793 5788 5783 5779 5775 5766 5758 5756 5755 5750 5747 5744 5739 5728 5722 5716 5707
5885 5883 5881 5877 5872 5867 5862 5859 5857 5855 5851 5849 5846 5842 5838 5839 5836 5828 5821 5819 5816 5814 5810 5809 5807 5806 5798 5789 5781 5778 5775 5771 5767 5760 5750 5748 5745 5743 5736 5720 5715 5710 5703
5885 5885 5885 5883 5877 5870 5867 5864 5858 5853 5851 5849 5846 5844 5843 5847 5841 5834 5828 5824 5822 5820 5817 5815 5809 5806 5805 5798 5788 5779 5777 5773 5766 5760 5756 5753 5747 5740 5730 5722 5712 5706 5700
5887 5888 5889 5883 5877 5875 5873 5869 5864 5857 5855 5855 5854 5849 5848 5850 5846 5839 5831 5832 5830 5827 5824 5817 5811 5809 5807 5798 5791 5780 5775 5769 5768 5761 5752 5750 5745 5738 5733 5723 5713 5698 5693
5894 5892 5886 5884 5880 5877 5874 5870 5866 5863 5860 5857 5855 5857 5856 5856 5854 5849 5840 5837 5831 5830 5829 5824 5818 5814 5806 5797 5792 5783 5775 5773 5763 5757 5746 5742 5734 5734 5729 5721 5713 5699 5691
5893 5891 5888 5885 5882 5879 5874 5872 5867 5863 5859 5857 5856 5858 5860 5862 5862 5854 5848 5844 5844 5840 5835 5830 5834 5824 5814 5803 5796 5787 5778 5770 5762 5750 5737 5729 5726 5725 5722 5717 5710 5705 5695
5890 5885 5883 5881 5879 5877 5872 5868 5865 5860 5855 5853 5852 5854 5861 5863 5860 5854 5849 5849 5851 5840 5836 5830 5828 5821 5810 5796 5781 5774 5762 5757 5752 5742 5730 5721 5724 5724 5720 5714 5706 5700 5690
5880 5877 5875 5874 5874 5873 5868 5862 5857 5856 5855 5854 5854 5856 5860 5869 5862 5852 5844 5839 5836 5833 5837 5832 5828 5808 5799 5789 5779 5761 5748 5745 5740 5732 5718 5723 5715 5721 5715 5708 5701 5693 5684
5871 5869 5870 5868 5866 5866 5866 5863 5857 5858 5858 5854 5855 5856 5859 5855 5856 5860 5848 5832 5822 5817 5819 5816 5808 5804 5801 5786 5765 5753 5748 5725 5731 5728 5718 5709 5705 5713 5705 5699 5694 5687 5677
5861 5861 5861 5861 5859 5858 5858 5860 5860 5860 5859 5855 5853 5850 5849 5848 5854 5850 5845 5838 5827 5815 5803 5789 5785 5782 5774 5769 5762 5749 5734 5738 5708 5718 5715 5708 5700 5694 5698 5688 5688 5682 5674
5849 5852 5857 5859 5858 5852 5852 5847 5847 5847 5844 5840 5832 5829 5841 5833 5835 5831 5830 5820 5812 5801 5788 5778 5775 5774 5771 5770 5764 5747 5733 5727 5717 5706 5703 5701 5683 5683 5684 5678 5679 5674 5670
5836 5839 5847 5845 5850 5850 5848 5844 5839 5838 5831 5826 5817 5815 5810 5810 5811 5808 5803 5802 5799 5788 5779 5773 5772 5769 5766 5762 5750 5739 5737 5733 5704 5699 5701 5692 5684 5679 5678 5675 5672 5665 5664
5816 5812 5827 5829 5831 5831 5830 5828 5826 5824 5822 5818 5803 5798 5795 5793 5790 5790 5786 5781 5773 5781 5776 5769 5765 5759 5753 5750 5739 5729 5723 5710 5707 5696 5691 5683 5680 5678 5672 5670 5666 5663 5659
5808 5807 5808 5805 5802 5802 5802 5799 5796 5791 5786 5783 5786 5786 5779 5775 5773 5767 5761 5771 5768 5767 5766 5760 5754 5750 5748 5741 5732 5721 5714 5718 5697 5690 5686 5682 5678 5675 5671 5668 5662 5654 5654
5781 5779 5783 5790 5788 5787 5787 5785 5783 5777 5773 5771 5771 5770 5767 5763 5762 5758 5751 5746 5742 5748 5753 5749 5738 5740 5736 5727 5714 5711 5706 5706 5687 5678 5679 5677 5673 5672 5669 5664 5660 5655 5648
5777 5775 5767 5773 5771 5771 5769 5769 5768 5769 5763 5763 5755 5746 5732 5744 5748 5747 5741 5735 5731 5731 5720 5717 5715 5711 5707 5709 5704 5703 5700 5698 5690 5683 5681 5672 5668 5667 5665 5662 5659 5652 5647
5762 5762 5762 5761 5758 5755 5758 5755 5756 5751 5743 5739 5739 5727 5718 5726 5729 5727 5728 5725 5719 5710 5705 5705 5701 5697 5698 5694 5697 5695 5691 5686 5679 5680 5673 5670 5664 5662 5660 5657 5653 5647 5643
5738 5736 5735 5734 5735 5733 5734 5731 5724 5718 5718 5714 5715 5714 5708 5712 5711 5709 5711 5709 5706 5691 5690 5690 5689 5685 5689 5687 5688 5686 5686 5679 5672 5671 5667 5663 5660 5658 5655 5653 5647 5644 5639
5716 5715 5713 5713 5714 5715 5715 5713 5702 5695 5698 5696 5696 5693 5692 5692 5693 5696 5701 5694 5687 5684 5681 5677 5679 5679 5681 5676 5680 5681 5677 5673 5666 5664 5661 5658 5654 5650 5649 5647 5640 5636 5635
5686 5695 5679 5682 5686 5683 5682 5682 5679 5682 5676 5674 5675 5674 5679 5682 5685 5686 5690 5681 5676 5678 5675 5668 5667 5672 5673 5667 5671 5674 5671 5668 5663 5658 5653 5650 5646 5645 5642 5641 5634 5630 5627
5663 5660 5658 5662 5665 5663 5659 5654 5649 5650 5647 5646 5650 5653 5653 5656 5662 5675 5682 5681 5676 5677 5675 5672 5670 5665 5664 5662 5664 5660 5659 5657 5652 5645 5642 5637 5634 5632 5631 5625 5623 5623 5621